Weather History for Piney Island, NC

Change the Weather History Date:

Wednesday, November 27, 2013

  Actual Average (KMRH) Record (KMRH)
Temperature  
Mean Temperature 56 °F -  
Max Temperature 72 °F 67 °F 78 °F (1987)
Min Temperature 39 °F 45 °F 24 °F (1977)
Degree Days  
Heating Degree Days 10    
Growing Degree Days 6 (Base 50)    
Moisture  
Dew Point 53 °F    
Average Humidity 89    
Maximum Humidity 100    
Minimum Humidity 67    
Precipitation  
Precipitation 0.03 in - - ()
Sea Level Pressure  
Sea Level Pressure 29.67 in    
Wind  
Wind Speed 16 mph (West)    
Max Wind Speed 24 mph    
Max Gust Speed 36 mph    
Averages and records for this station are not official NWS values.
T = Trace of Precipitation, MM = Missing Value Source: NWS Daily Summary

Daily Weather History Graph

Daily Weather History Graph

Search for Another Location

Airport:

Trip Planner

Search our weather history database for the weather conditions in past years. The results will help you decide how hot, cold, wet, or windy it might be!

Date:

Astronomy

Nov. 27, 2013 Rise Set
Actual Time 6:52 AM EST 4:54 PM EST
Civil Twilight 6:24 AM EST 5:22 PM EST
Nautical Twilight 5:53 AM EST 5:53 PM EST
Astronomical Twilight 5:22 AM EST 6:24 PM EST
Moon 1:04 AM EST (11/27) 1:19 PM EST (11/27)
Length of Visible Light 10h 57m
Length of Day
10h 02m
Waning Crescent, 32% of the Moon is Illuminated
Nov 27
Waning Crescent
Dec 2
New
Dec 9
First Quarter
Dec 17
Full
Dec 25
Last Quarter

Hourly Weather History & Observations

Time (EST) Temp. Windchill Dew Point Humidity Pressure Visibility Wind Dir Wind Speed Gust Speed Precip Events Conditions
12:56 AM 69.1 °F - 68.0 °F 96% 29.66 in - South 16.1 mph 32.2 mph N/A   Overcast
1:56 AM 72.0 °F - 69.1 °F 91% 29.64 in - South 16.1 mph 24.2 mph N/A   Mostly Cloudy
2:23 AM 72.0 °F - 69.1 °F 91% 29.62 in - South 18.4 mph 31.1 mph 0.00 in Rain Light Rain
2:52 AM 71.6 °F - 69.8 °F 94% 29.60 in - South 15.0 mph - 0.03 in Rain Light Rain
2:56 AM 72.0 °F - 69.1 °F 91% 29.61 in - South 16.1 mph 27.6 mph 0.03 in Rain Light Rain
3:09 AM 72.0 °F - 70.0 °F 93% 29.59 in - South 18.4 mph 25.3 mph 0.00 in Rain Light Rain
3:22 AM 72.0 °F - 70.0 °F 93% 29.59 in - South 20.7 mph 34.5 mph 0.00 in Rain Light Rain
3:56 AM 72.0 °F - 69.1 °F 91% 29.59 in - SSW 24.2 mph 35.7 mph 0.00 in Rain Light Rain
4:56 AM 71.1 °F - 68.0 °F 90% 29.57 in - South 16.1 mph 29.9 mph 0.00 in Rain Light Rain
5:56 AM 70.0 °F - 69.1 °F 97% 29.55 in - South 18.4 mph 28.8 mph N/A Rain Light Rain
6:56 AM 70.0 °F - 70.0 °F 100% 29.52 in - South 11.5 mph - N/A   Partly Cloudy
7:56 AM 70.0 °F - 69.1 °F 97% 29.50 in - South 12.7 mph - N/A   Mostly Cloudy
8:56 AM 70.0 °F - 70.0 °F 100% 29.45 in - South 15.0 mph 19.6 mph N/A Rain Light Rain
9:48 AM 71.1 °F - 69.1 °F 93% 29.45 in - SSW 15.0 mph 26.5 mph N/A Rain Light Rain
9:50 AM 69.8 °F - 69.8 °F 100% 29.45 in - SSW 15.0 mph 26.5 mph N/A Rain Light Rain
9:56 AM 70.0 °F - 69.1 °F 97% 29.46 in - SSW 16.1 mph - N/A Rain Light Rain
10:40 AM 69.1 °F - 66.9 °F 93% 29.44 in - SSW 13.8 mph - N/A Rain Light Rain
10:56 AM 69.1 °F - 66.9 °F 93% 29.46 in - SSW 13.8 mph - N/A   Overcast
11:15 AM 64.9 °F - 63.0 °F 93% 29.44 in - West 11.5 mph - N/A Rain Light Rain
11:22 AM 64.9 °F - 63.0 °F 93% 29.42 in - West 10.4 mph - N/A   Overcast
11:46 AM 61.0 °F - 60.1 °F 97% 29.44 in - West 11.5 mph - N/A Rain Rain
11:56 AM 60.1 °F - 59.0 °F 96% 29.47 in - WNW 16.1 mph - N/A Rain Light Rain
11:58 AM 60.1 °F - 59.0 °F 96% 29.45 in - WNW 16.1 mph - N/A Rain Light Rain
12:14 PM 59.0 °F - 57.0 °F 93% 29.44 in - WNW 16.1 mph 23.0 mph N/A   Overcast
12:21 PM 57.9 °F - 57.0 °F 97% 29.44 in - WNW 16.1 mph 24.2 mph N/A Rain Light Rain
12:38 PM 57.0 °F - 55.0 °F 93% 29.46 in - NW 12.7 mph - N/A Rain Rain
12:56 PM 55.9 °F - 54.0 °F 93% 29.49 in - NW 13.8 mph - N/A Rain Light Rain
1:56 PM 53.1 °F - 50.0 °F 89% 29.55 in - NNW 13.8 mph 23.0 mph N/A   Overcast
2:56 PM 48.9 °F - 46.0 °F 90% 29.61 in - NW 20.7 mph 29.9 mph N/A Rain Light Rain
3:10 PM 48.9 °F - 45.0 °F 86% 29.61 in - NW 19.6 mph 27.6 mph N/A   Overcast
3:17 PM 48.9 °F - 44.1 °F 83% 29.62 in - NW 21.9 mph 31.1 mph N/A   Overcast
3:46 PM 48.0 °F - 43.0 °F 83% 29.67 in - NW 18.4 mph 27.6 mph N/A   Overcast
3:56 PM 48.0 °F - 44.1 °F 86% 29.70 in - NW 17.3 mph 25.3 mph N/A   Overcast
4:32 PM 48.0 °F - 44.1 °F 86% 29.72 in - NW 17.3 mph - N/A   Overcast
4:56 PM 46.9 °F - 42.1 °F 83% 29.77 in - NNW 17.3 mph 27.6 mph N/A   Overcast
5:33 PM 46.9 °F - 42.1 °F 83% 29.78 in - NNW 11.5 mph - N/A   Overcast
5:43 PM 46.9 °F - 43.0 °F 86% 29.79 in - NW 10.4 mph - N/A   Overcast
5:56 PM 46.9 °F - 42.1 °F 83% 29.83 in - NW 13.8 mph - N/A   Overcast
6:17 PM 46.0 °F 38.5 °F 42.1 °F 86% 29.84 in - WNW 19.6 mph 25.3 mph N/A Rain Light Rain
6:56 PM 45.0 °F 37.4 °F 39.9 °F 82% 29.89 in - NW 18.4 mph 26.5 mph N/A   Overcast
7:56 PM 43.0 °F 35.7 °F 39.0 °F 86% 29.94 in - NW 15.0 mph 26.5 mph N/A Rain Light Rain
8:12 PM 43.0 °F 35.1 °F 39.0 °F 86% 29.93 in - WNW 17.3 mph - N/A Rain Light Rain
8:43 PM 43.0 °F 33.8 °F 39.0 °F 86% 29.96 in - WNW 23.0 mph 29.9 mph N/A Rain Light Rain
8:56 PM 42.1 °F 32.6 °F 37.0 °F 82% 29.98 in - WNW 23.0 mph 31.1 mph N/A Rain Light Rain
9:43 PM 41.0 °F 32.2 °F 36.0 °F 82% 30.01 in - WNW 18.4 mph 27.6 mph N/A   Overcast
9:52 PM 41.0 °F 32.2 °F 35.6 °F 81% 30.02 in - WNW 18.4 mph 28.8 mph N/A   Overcast
9:56 PM 41.0 °F 32.8 °F 35.1 °F 79% 30.04 in - WNW 16.1 mph 25.3 mph N/A   Overcast
10:22 PM 41.0 °F 31.9 °F 34.0 °F 76% 30.04 in - WNW 19.6 mph 31.1 mph N/A   Overcast
10:44 PM 39.9 °F 30.5 °F 32.0 °F 73% 30.05 in - WNW 19.6 mph 27.6 mph N/A   Overcast
10:56 PM 39.9 °F 30.2 °F 30.0 °F 68% 30.08 in - WNW 20.7 mph 32.2 mph N/A   Overcast
11:56 PM 39.0 °F 29.0 °F 28.9 °F 67% 30.12 in - WNW 20.7 mph 24.2 mph N/A   Clear